Flag for Canada Weather past 2 weeks in Edmundston, New Brunswick, Canada

Now
63 °F

Mild.


Feels Like: 63 °F
Forecast: 60 / 76 °F
Wind: 5 mph from South

Location: St Leonard

Current Time: Jul 28, 2015 at 1:20:29 AM

Latest Report: Jul 28, 2015 at 12:00 AM


Visibility: N/A

Pressure: 29.94 "Hg

Humidity: 87%

Dew point: 58 °F

Location of EdmundstonLocation

Historic Weather in Edmundston — Graph

°F

Edmundston temperature yesterday

Maximum temperature yesterday: 74 °F (at 4:00 PM)
Minimum temperature yesterday: 59 °F (at 12:00 AM)
Average temperature yesterday: 64 °F

Past Weeks' High & Low Weather Summary

 TemperatureHumidityPressure
High81 °F (Jul 14, 2:00 PM)100% (Jul 15, 9:00 AM)30.13 "Hg (Jul 15, 9:00 AM)
Low44 °F (Jul 17, 5:00 AM)31% (Jul 13, 3:00 PM)29.54 "Hg (Jul 22, 4:00 AM)
Average61 °F80%29.86 "Hg
* Reported Midnight between Jul 12 and Jul 13 — Midnight between Jul 27 and Jul 28, Edmundston, Weather by CustomWeather, © 2015

Note: Actual official high and low records may vary slightly from our data, if they occured in-between our weather recording intervals... More about our weather records

Advertising

Edmundston weather history for previous 24 hours

 ConditionsComfort  
Time TempWeatherWind HumidityBarometerVisibility
12:00 AM
Tue, Jul 28
63 °FMild.5 mph87%29.94 "HgN/A
11:00 PM
Mon, Jul 27
62 °FMild.7 mph93%29.95 "HgN/A
10:00 PM65 °FMild.6 mph93%29.96 "HgN/A
9:00 PM65 °FMild.6 mph94%29.97 "HgN/A
8:00 PM66 °FMild.9 mph92%29.96 "HgN/A
7:00 PM66 °FMild.8 mph90%29.97 "HgN/A
6:00 PM69 °FMild.10 mph85%29.96 "HgN/A
5:00 PM71 °FMild.9 mph78%29.96 "HgN/A
4:00 PM74 °FMild.9 mph71%29.96 "HgN/A
3:00 PM73 °FMild.10 mph75%29.97 "HgN/A
2:00 PM72 °FMild.7 mph77%29.99 "HgN/A
1:00 PM69 °FMild.6 mph81%30.01 "HgN/A
12:00 PM66 °FMild.7 mph81%30.03 "HgN/A
11:00 AM63 °FMild.7 mph93%30.03 "HgN/A
10:00 AM63 °FMild.7 mph94%30.02 "HgN/A
9:00 AM61 °FCool.6 mph98%30.02 "HgN/A
8:00 AM60 °FCool.7 mph98%30.01 "HgN/A
7:00 AM60 °FCool.7 mph98%30.00 "HgN/A
6:00 AM59 °FCool.6 mph98%29.99 "HgN/A
5:00 AM59 °FCool.5 mph98%29.99 "HgN/A
4:00 AM59 °FCool.8 mph98%29.99 "HgN/A
3:00 AM59 °FCool.6 mph98%30.00 "HgN/A
2:00 AM59 °FCool.6 mph91%30.00 "HgN/A
1:00 AM59 °FCool.7 mph97%30.01 "HgN/A
Weather by CustomWeather, © 2015

See weather overviewHow to use our weather pages